Regional Weather Roundup
Issued by NWS

Home | Current Version | Previous Version | Text Only | Print | Product List | Glossary On
Versions: 1 2 3 4 5 6 7 8 9 10 11 12 13 14 15 16 17 18 19 20 21 22 23 24 25 26 27 28 29 30 31 32 33 34 35 36 37 38 39 40 41 42 43 44 45 46 47 48 49 50
000
ASUS43 KMPX 172010
RWRMN
WEATHER ROUNDUP FOR MINNESOTA
NATIONAL WEATHER SERVICE TWIN CITIES/CHANHASSEN MN
200 PM CST WED JAN 17 2018


NOTE: "FAIR" INDICATES FEW OR NO CLOUDS BELOW 12,000 FEET WITH NO
SIGNIFICANT WEATHER AND/OR OBSTRUCTIONS TO VISIBILITY. N/A MEANS
CURRENT SKY AND/OR WEATHER CONDITIONS ARE NOT AVAILABLE.

MNZ060>063-068>070-172100-
   Twin Cities Metro

CITY           SKY/WX    TMP DP  RH WIND       PRES   REMARKS
TWIN CITIES    FAIR      24   9  52 SW14G21   30.15F WCI  12
ST PAUL        FAIR      24   8  50 SW10G21   30.17F WCI  14
CRYSTAL        FAIR      24   7  48 S12       30.13F WCI  13
BLAINE         SUNNY     27   9  46 SW12      30.12F WCI  16
LAKEVILLE      FAIR      23  10  58 SW5       30.15F WCI  17
EDEN PRAIRIE   FAIR      24   9  52 SW14G21   30.14F WCI  12
SOUTH ST PAUL  FAIR      25   8  48 SW8       30.15F WCI  16
LAKE ELMO      FAIR      23  10  58 S10       30.14F WCI  12
$$
MNZ001>005-007-008-013>017-022>024-027-028-172100-
   Northwest Minnesota

CITY           SKY/WX    TMP DP  RH WIND       PRES   REMARKS
BEMIDJI        FAIR      28  14  55 W21       29.90S WCI  15
HALLOCK        FAIR      25  19  80 S13       29.85F WCI  13
ROSEAU         FAIR      21  12  68 SW15      29.83F WCI   8
WARROAD        FAIR      21  12  68 SW8       29.82F WCI  12
THIEF RVR FALL FAIR      19  11  70 SW16      29.90F WCI   4
CROOKSTON      FAIR      19  14  79 S16       29.94F WCI   5
FOSSTON        FAIR      21  10  63 S17       29.93F WCI   7
DETROIT LAKES  FAIR      25  14  63 W8        30.02R WCI  16
MOORHEAD       FAIR      25  14  63 SW10      30.03F WCI  15
PARK RAPIDS    FAIR      26  12  55 W14       29.94F WCI  14
MAHNOMEN       FAIR      19  12  73 SW20      29.97F WCI   4
$$
MNZ006-009>011-018-025>026-172100-
   North Central Minnesota

CITY           SKY/WX    TMP DP  RH WIND       PRES   REMARKS
BAUDETTE       FAIR      22  10  60 SW13      29.81F WCI  10
FLAG ISLAND    FAIR      23  10  58 SW12      29.78F WCI  12
INTL FALLS     FAIR      25   9  50 W10G18    29.82F WCI  15
WASKISH        FAIR      21  12  68 SW13      29.88S WCI   9
BIG FORK       FAIR      30  10  43 SW12G17   29.85F WCI  21
LONGVILLE      FAIR      28   9  43 SW8       29.91F WCI  20
GRAND RAPIDS   FAIR      32  10  40 W9        29.90F WCI  24
CRANE LAKE     FAIR      28   9  43 SW7       29.83F WCI  21
ORR            FAIR      30   5  34 W9        29.80F WCI  22
COOK           FAIR      28  10  47 SW9G16    29.83F WCI  20
WALKER         FAIR      30  10  43 SW15      29.90F WCI  19
$$
MNZ012-019>021-037-172100-
   Northeast Minnesota

CITY           SKY/WX    TMP DP  RH WIND       PRES   REMARKS
DULUTH         FAIR      22   7  52 SW18G28   29.87F WCI   7
ELY            FAIR      27  10  50 SW15G22   29.80F WCI  15
HIBBING        FAIR      27   9  46 W6G17     29.87S WCI  20
EVELETH        FAIR      26   7  44 W12       29.87S WCI  15
DULUTH HARBOR  FAIR      25   9  50 SW25G31   29.93F HAZE    WCI   9
TWO HARBORS    FAIR      34  10  37 SW14G20   29.85F WCI  24
SILVER BAY     FAIR      36   7  30 SW9G17    29.81F
GRAND MARAIS     N/A     31  24  75 SW28G35   29.81F WCI  17
G MARAIS ARPRT FAIR      30   7  37 SW10      29.74F WCI  21
$$
MNZ029>031-032-039>041-046>048-054>057-064-172100-
   West Central Minnesota

CITY           SKY/WX    TMP DP  RH WIND       PRES   REMARKS
FERGUS FALLS   FAIR      27  16  63 W8        30.09S WCI  18
MORRIS         SUNNY     36  18  48 W10       30.06F
ALEXANDRIA     FAIR      28  13  53 W13       30.05F WCI  17
ELBOW LAKE     FAIR      30  18  60 SW12      30.05F HAZE    WCI  21
WADENA         FAIR      27  10  50 SW12      30.00F WCI  16
GLENWOOD       FAIR      28  12  50 SW17      30.06F WCI  16
APPLETON       SUNNY     36  16  44 SW9       30.09F
BENSON         SUNNY     32  14  47 W14       30.09F WCI  22
ORTONVILLE     SUNNY     36  16  44 W7        30.08F
MADISON        SUNNY     36  18  48 W12       30.10F
WILLMAR        FAIR      28  16  59 SW12      30.13F WCI  18
$$
MNZ033>034-036-042>043-049>051-058-059-172100-
   Central Minnesota

CITY           SKY/WX    TMP DP  RH WIND       PRES   REMARKS
ST CLOUD       FAIR      23  12  62 S14       30.09F WCI  11
SAUK CENTRE      N/A     27  12  53 SW13      30.06F WCI  16
PAYNESVILLE    FAIR      28  15  56 SW12      30.09F WCI  18
AITKIN         FAIR      25   5  42 SW10G16   29.96F WCI  15
PINE RIVER     FAIR      27   9  46 W9G18     29.98F WCI  17
BRAINERD       FAIR      27   8  44 SW20      29.99F WCI  13
STAPLES        FAIR      27   9  46 SW9       30.00F WCI  17
LONG PRAIRIE   FAIR      27  12  54 S10       30.05S WCI  17
LITTLE FALLS   FAIR      27   3  36 SW8       30.05F WCI  18
LITCHFIELD     FAIR      28  16  59 SW8       30.12S WCI  20
BUFFALO        FAIR      24  11  57 S10G17    30.14S WCI  14
MAPLE LAKE     FAIR      26  13  59 MISG      30.12F
HUTCHINSON     FAIR      28  16  59 SW12      30.14F WCI  18
$$
MNZ037-044-045-052-053-172100-
   East Central Minnesota

CITY           SKY/WX    TMP DP  RH WIND       PRES   REMARKS
PRINCETON      FAIR      25   9  50 S13G18    30.09F WCI  13
MORA           FAIR      25   9  50 SW12G18   30.07F WCI  14
CAMBRIDGE      FAIR      25  10  54 SW10G16   30.10F WCI  15
RUSH CITY      FAIR      24   7  47 SW8       30.09S WCI  15
MOOSE LAKE     FAIR      25   7  46 SW14G22   29.96F WCI  13
HINCKLEY       FAIR      23   9  54 SW13      30.05F WCI  11
CLOQUET        FAIR      23   3  42 SW10G16   29.91F WCI  12
MCGREGOR       FAIR      25   9  50 SW13      29.96F WCI  13
$$
MNZ071>073-080-081-089-090-097-098-172100-
   Southwest Minnesota

CITY           SKY/WX    TMP DP  RH WIND       PRES   REMARKS
MONTEVIDEO     SUNNY     37  16  41 W9        30.11F
GRANITE FALLS  SUNNY     33  18  54 SW14      30.14S WCI  23
CANBY          SUNNY     34  17  49 SW28G38   30.08F WCI  20
MARSHALL       SUNNY     28  14  55 SW24G39   30.09S WCI  14
REDWOOD FALLS  SUNNY     27  15  61 SW12      30.13F WCI  17
OLIVIA         SUNNY     30  18  59 SW14      30.12S WCI  20
PIPESTONE      SUNNY     23  12  63 W14       30.16F WCI  11
WINDOM         SUNNY     25   7  46 SW21      30.15F WCI  10
WORTHINGTON    SUNNY     25  15  66 SW18G28   30.17F WCI  11
JACKSON        SUNNY     27  14  59 SW22      30.19F WCI  12
SLAYTON        SUNNY     24  14  65 SW23      30.14F WCI   9
$$
MNZ065>067-074>077-082>085-091>093-172100-
   South Central Minnesota

CITY           SKY/WX    TMP DP  RH WIND       PRES   REMARKS
MANKATO        FAIR      26  14  60 S14       30.17F WCI  14
NEW ULM        SUNNY     27  14  59 S12G21    30.13F WCI  16
ST JAMES       SUNNY     27  16  63 S16       30.17F WCI  14
FAIRMONT       SUNNY     26  15  63 SW21G28   30.20F WCI  12
FARIBAULT      FAIR      21  12  68 S12G18    30.17F WCI   9
OWATONNA       FAIR      21  12  68 S17       30.18F WCI   7
WASECA         FAIR      23  14  68 S23       30.19F WCI   7
ALBERT LEA     FAIR      21   9  58 SW18      30.21F WCI   6
$$
MNZ078>079-086>088-094>096-172100-
   Southeast Minnesota

CITY           SKY/WX    TMP DP  RH WIND       PRES   REMARKS
ROCHESTER      FAIR      20  11  68 SW20G29   30.19F WCI   4
RED WING       FAIR      25   5  42 SW8       30.17F WCI  16
STANTON        FAIR      23  11  61 SW17      30.15F WCI   9
DODGE CENTER   FAIR      21  10  63 SW20      30.17F WCI   6
WINONA         FAIR      28  10  47 W9        30.22F WCI  20
AUSTIN         FAIR      21   9  58 SW17      30.23F WCI   7
PRESTON        FAIR      22   8  56 SW21G28   30.21F WCI   6
$$
ABBREVIATIONS USED IN REMARKS
   TC - TEMPERATURES IN CELSIUS
  WCI - WIND CHILL INDEX
   HX - HEAT INDEX
  VSB - VISIBILITY
$$



USA.gov is the U.S. government's official web portal to all federal, state and local government web resources and services.